User: anonymous   Login
Location: Unspecified
(0.0000°N, 0.0000°E)
Time: 15:20:49
(UTC+00:00)
Language:

COSMOS 2391 - Orbit

View from above orbital plane
View from above orbital plane
View from above satellite
View from above satellite

Ground track
Ground track

The orbit data is extracted from the following two-line orbital elements,

1 27465U 02036B   18262.12447517  .00000028  00000-0  13017-3 0  9990
2 27465  82.4841 310.8491 0025170 323.9973  35.9414 12.44883870736197
Epoch (UTC): 19 September 2018 02:59:14
Eccentricity: 0.0025170
inclination: 82.4841°
perigee height: 1466 km
apogee height: 1506 km
right ascension of ascending node: 310.8491°
argument of perigee: 323.9973°
revolutions per day: 12.44883870
mean anomaly at epoch: 35.9414°
orbit number at epoch: 73619

The dashed part of the orbit path shows where the satellite is in the earth's shadow,  

DLR